Simultaneous Nadir Overpasses (SNOs) Predictions

Prediction of SNOs between GOES-16 and NOAA-19 Satellite Orbit:

Table of predicted SNOs for the next 14.0 days since TLE Epoch: 1/20/2017
Index Date Time (GOES-16) GOES-16 Lat,Lon NOAA-19 Lat,Lon Distance(km) Time Diff (sec)
1 01/22/2017 21:05:44 -0.02, -89.60 -0.41, -91.31 195.04 80
2 01/23/2017 20:56:59 -0.03, -89.63 0.20, -88.52 126.09 80
3 01/24/2017 20:45:34 -0.03, -89.67 0.87, -85.75 447.17 80
4 01/26/2017 09:18:40 0.03, -89.71 0.97, -93.69 455.06 80
5 01/27/2017 09:07:15 0.03, -89.75 0.31, -90.92 133.98 80
6 01/28/2017 08:53:11 0.04, -89.78 -0.35, -88.15 187.17 80
7 01/30/2017 21:14:51 -0.04, -89.90 -0.82, -93.32 389.41 80
8 01/31/2017 21:06:06 -0.04, -89.94 -0.20, -90.53 67.90 80
9 02/01/2017 20:52:01 -0.04, -89.98 0.48, -87.76 253.75 80




NCC Satellite Simultaneous Nadir Overpasses (SNOs) Prediction Service
